Weather History for San Jose, Costa Rica

Change the Weather History Date:

Monday, September 30, 2013

  Actual Average Record
Temperature  
Mean Temperature 74 °F -  
Max Temperature 82 °F 78 °F 84 °F (2006)
Min Temperature 65 °F 64 °F 60 °F (1996)
Cooling Degree Days 8    
Growing Degree Days 24 (Base 50)    
Moisture  
Dew Point 66 °F    
Average Humidity 85    
Maximum Humidity 100    
Minimum Humidity 48    
Precipitation  
Precipitation 1.50 in 0.43 in - ()
Sea Level Pressure  
Sea Level Pressure 29.98 in    
Wind  
Wind Speed 4 mph ()    
Max Wind Speed 13 mph    
Max Gust Speed -    
Visibility 6.3 miles    
Events Fog , Rain , Thunderstorm    
Averages and records for this station are not official NWS values.
T = Trace of Precipitation, MM = Missing Value Source: Averaged Metar Reports

Daily Weather History Graph

Daily Weather History Graph

Search for Another Location

Airport:

Trip Planner

Search our weather history database for the weather conditions in past years. The results will help you decide how hot, cold, wet, or windy it might be!

Date:

Astronomy

Sep. 30, 2013 Rise Set
Actual Time 5:25 AM CST 5:27 PM CST
Civil Twilight 5:04 AM CST 5:48 PM CST
Nautical Twilight 4:40 AM CST 6:13 PM CST
Astronomical Twilight 4:15 AM CST 6:37 PM CST
Moon 1:43 AM CST (9/30) 2:21 PM CST (9/30)
Length of Visible Light 12h 44m
Length of Day
12h 02m
Waning Crescent, 18% of the Moon is Illuminated
Sep 30
Waning Crescent
Oct 4
New
Oct 11
First Quarter
Oct 18
Full
Oct 26
Last Quarter

Hourly Weather History & Observations

Time (CST) Temp. Heat Index Dew Point Humidity Pressure Visibility Wind Dir Wind Speed Gust Speed Precip Events Conditions
12:00 AM 68 °F - 64 °F 85% 29.86 in 12 mi NE 4.6 mph - -   Overcast
12:00 AM 75.2 °F - 64.4 °F 69% 30.03 in - NE 4.6 mph - N/A   Clear
12:01 AM - - 64.4 °F N/A% 30.03 in - NE 4.6 mph - N/A   Clear
1:00 AM 66.2 °F - 66.2 °F 100% 30.00 in - South 2.3 mph - N/A   Clear
2:00 AM 68.0 °F - 68.0 °F 100% 30.00 in 0.3 mi WNW 3.5 mph - N/A Fog Fog
3:00 AM 67 °F - 67 °F 99% 29.85 in 5 mi NNW 2.3 mph - -   Mist
3:00 AM 68.0 °F - 66.2 °F 94% 29.99 in 5.0 mi NNW 2.3 mph - N/A Fog Fog
4:00 AM 75.2 °F - 64.4 °F 69% 29.98 in 6.2 mi West 5.8 mph - N/A Fog Mostly Cloudy
4:01 AM 66.2 °F - 66.2 °F 100% - 6.2 mi East 5.8 mph - N/A Fog Mostly Cloudy
5:00 AM 66.2 °F - 64.4 °F 94% 29.99 in 6.2 mi ENE 3.5 mph - N/A   Mostly Cloudy
6:00 AM 66 °F - 63 °F 88% 29.86 in 9 mi East 4.6 mph - -   Haze
6:00 AM 66.2 °F - 62.6 °F 88% 30.00 in 6.2 mi East 4.6 mph - N/A   Mostly Cloudy
7:00 AM 71.6 °F - 64.4 °F 78% 30.03 in - ENE 5.8 mph - N/A   Clear
8:00 AM 75.2 °F - 62.6 °F 65% 30.04 in 6.2 mi NE 4.6 mph - N/A   Scattered Clouds
9:00 AM 78 °F - 62 °F 48% 29.90 in 12 mi West 3.5 mph - -   Scattered Clouds
9:00 AM 78.8 °F - 62.6 °F 57% 30.03 in 6.2 mi West 3.5 mph - N/A   Scattered Clouds
10:00 AM 78.8 °F - 64.4 °F 61% 30.03 in 6.2 mi SW 4.6 mph - N/A   Scattered Clouds
11:00 AM 80.6 °F 82.3 °F 64.4 °F 58% 30.02 in 6.2 mi West 9.2 mph - N/A   Scattered Clouds
12:00 PM 82 °F - 66 °F 50% 29.80 in 12 mi WSW 9.2 mph - -   Partly Cloudy
12:00 PM 82.4 °F 84.6 °F 66.2 °F 58% - 6.2 mi WSW 9.2 mph - N/A   Scattered Clouds
1:00 PM 77.0 °F - 66.2 °F 69% 29.96 in 6.2 mi WSW 11.5 mph - N/A Rain Light Rain
2:00 PM 73.4 °F - 68.0 °F 83% 29.94 in 6.2 mi WSW 12.7 mph - N/A Rain , Thunderstorm Rain
2:44 PM 68.0 °F - 66.2 °F 94% 29.97 in 0.9 mi SSE 8.1 mph - N/A Rain , Thunderstorm Thunderstorms and Rain
3:00 PM 66.2 °F - 66.2 °F 100% - 0.9 mi SE 4.6 mph - N/A Rain , Thunderstorm Thunderstorms and Rain
4:00 PM 66.2 °F - 66.2 °F 100% 29.97 in 1.9 mi SW 4.6 mph - N/A Rain , Thunderstorm Light Thunderstorms and Rain
5:00 PM 66.2 °F - 66.2 °F 100% 29.97 in 5.0 mi NNE 4.6 mph - N/A Rain Light Rain
6:00 PM 68 °F - 67 °F 96% 29.89 in 12 mi WNW 3.5 mph - - Rain Light Rain
6:00 PM 68.0 °F - 68.0 °F 100% 30.01 in 6.2 mi WNW 3.5 mph - N/A Rain Light Rain
7:00 PM 68.0 °F - 66.2 °F 94% 30.01 in 6.2 mi Calm Calm - N/A Rain Light Rain
8:00 PM 68.0 °F - 68.0 °F 100% 30.03 in 6.2 mi East 2.3 mph - N/A Rain Light Rain
8:07 PM 68.0 °F - 68.0 °F 100% 30.03 in 6.2 mi East 2.3 mph - N/A Rain Light Rain
9:00 PM 68 °F - 67 °F 94% 29.86 in 12 mi ENE 6.9 mph - -   Mostly Cloudy
9:00 PM 68.0 °F - 66.2 °F 94% 30.02 in - ENE 6.9 mph - N/A   Clear
10:00 PM 68.0 °F - 66.2 °F 94% 30.02 in - NE 5.8 mph - N/A   Clear
11:00 PM 68.0 °F - 66.2 °F 94% 30.03 in 6.2 mi SW 6.9 mph - N/A   Mostly Cloudy
11:40 PM 66.2 °F - 66.2 °F 100% 30.03 in 0.9 mi West 8.1 mph - N/A   Mostly Cloudy